TimeMST,TemperatureF,Dew PointF,Humidity,Sea Level PressureIn,VisibilityMPH,Wind Direction,Wind SpeedMPH,Gust SpeedMPH,PrecipitationIn,Events,Conditions,WindDirDegrees,DateUTC
12:15 AM,1.4,1.4,100,29.97,10.0,SSW,3.5,-,N/A,,Mostly Cloudy,200,2012-12-29 07:15:00
12:35 AM,-0.4,-4.0,85,29.97,10.0,South,4.6,-,N/A,,Partly Cloudy,190,2012-12-29 07:35:00
12:55 AM,1.4,-2.2,85,29.97,10.0,SSE,4.6,-,N/A,,Mostly Cloudy,160,2012-12-29 07:55:00
1:16 AM,1.4,1.4,100,29.97,10.0,Calm,Calm,-,N/A,,Mostly Cloudy,0,2012-12-29 08:16:00
1:35 AM,1.4,-0.4,92,29.97,10.0,Calm,Calm,-,N/A,,Overcast,0,2012-12-29 08:35:00
1:55 AM,5.0,1.4,85,29.97,10.0,SSW,4.6,-,N/A,,Overcast,200,2012-12-29 08:55:00
2:15 AM,6.8,6.8,100,29.98,10.0,SSW,6.9,-,N/A,,Overcast,200,2012-12-29 09:15:00
2:35 AM,8.6,6.8,92,29.98,10.0,ENE,3.5,-,N/A,,Overcast,70,2012-12-29 09:35:00
2:55 AM,10.4,6.8,85,29.99,10.0,Calm,Calm,-,N/A,,Overcast,0,2012-12-29 09:55:00
3:15 AM,10.4,10.4,100,29.99,10.0,Calm,Calm,-,N/A,,Overcast,0,2012-12-29 10:15:00
3:36 AM,10.4,8.6,92,29.98,10.0,Calm,Calm,-,N/A,,Overcast,0,2012-12-29 10:36:00
3:55 AM,12.2,10.4,92,29.98,10.0,West,6.9,-,N/A,,Overcast,270,2012-12-29 10:55:00
4:15 AM,23.0,14.0,68,29.98,10.0,West,15.0,-,N/A,,Overcast,280,2012-12-29 11:15:00
5:15 AM,24.8,17.6,74,29.97,10.0,West,17.3,-,N/A,,Overcast,280,2012-12-29 12:15:00
6:15 AM,24.8,17.6,74,29.99,10.0,WNW,15.0,-,N/A,,Overcast,290,2012-12-29 13:15:00
6:35 AM,24.8,15.8,69,29.98,10.0,West,13.8,-,N/A,,Overcast,280,2012-12-29 13:35:00
6:55 AM,23.0,15.8,74,29.98,10.0,West,16.1,-,N/A,,Overcast,280,2012-12-29 13:55:00
7:15 AM,23.0,15.8,74,29.99,10.0,WNW,11.5,-,N/A,,Overcast,290,2012-12-29 14:15:00
7:35 AM,23.0,17.6,80,29.99,10.0,WNW,13.8,-,N/A,,Overcast,290,2012-12-29 14:35:00
7:55 AM,24.8,17.6,74,29.99,10.0,West,18.4,-,N/A,,Overcast,280,2012-12-29 14:55:00
8:15 AM,24.8,17.6,74,29.99,10.0,West,16.1,-,N/A,,Overcast,280,2012-12-29 15:15:00
8:35 AM,21.2,15.8,80,30.00,10.0,West,6.9,-,N/A,,Scattered Clouds,270,2012-12-29 15:35:00
8:55 AM,19.4,12.2,74,30.01,10.0,SSW,8.1,-,N/A,,Clear,210,2012-12-29 15:55:00
9:15 AM,19.4,14.0,80,30.01,10.0,South,12.7,-,N/A,,Clear,180,2012-12-29 16:15:00
9:35 AM,17.6,10.4,73,30.02,10.0,South,13.8,-,N/A,,Clear,180,2012-12-29 16:35:00
9:55 AM,17.6,10.4,73,30.02,10.0,South,11.5,-,N/A,,Clear,180,2012-12-29 16:55:00
10:15 AM,17.6,10.4,73,30.03,10.0,South,11.5,-,N/A,,Clear,190,2012-12-29 17:15:00
10:35 AM,17.6,12.2,79,30.02,10.0,SSW,11.5,-,N/A,,Clear,200,2012-12-29 17:35:00
10:55 AM,17.6,12.2,79,30.02,10.0,South,10.4,-,N/A,,Clear,190,2012-12-29 17:55:00
11:15 AM,19.4,12.2,74,30.01,10.0,SSW,11.5,-,N/A,,Clear,200,2012-12-29 18:15:00
12:35 PM,21.2,15.8,80,29.99,10.0,SSW,11.5,-,N/A,,Clear,200,2012-12-29 19:35:00
12:55 PM,21.2,15.8,80,29.99,10.0,SSW,11.5,-,N/A,,Clear,210,2012-12-29 19:55:00
1:15 PM,23.0,15.8,74,29.99,10.0,SSW,12.7,-,N/A,,Clear,200,2012-12-29 20:15:00
1:35 PM,23.0,15.8,74,29.99,10.0,SSW,10.4,-,N/A,,Clear,210,2012-12-29 20:35:00
1:55 PM,23.0,15.8,74,29.98,10.0,SSW,9.2,-,N/A,,Clear,210,2012-12-29 20:55:00
2:15 PM,23.0,17.6,80,29.98,10.0,SSW,10.4,-,N/A,,Clear,200,2012-12-29 21:15:00
2:35 PM,23.0,17.6,80,29.98,10.0,SSW,8.1,-,N/A,,Clear,200,2012-12-29 21:35:00
2:55 PM,23.0,15.8,74,29.98,10.0,SSW,8.1,-,N/A,,Clear,210,2012-12-29 21:55:00
3:15 PM,21.2,15.8,80,29.99,10.0,SW,5.8,-,N/A,,Clear,220,2012-12-29 22:15:00
4:15 PM,19.4,12.2,74,29.99,10.0,SSW,9.2,-,N/A,,Clear,210,2012-12-29 23:15:00
4:35 PM,19.4,15.8,86,29.98,10.0,SSW,8.1,-,N/A,,Clear,210,2012-12-29 23:35:00
5:35 PM,14.0,10.4,86,29.98,10.0,South,4.6,-,N/A,,Clear,170,2012-12-30 00:35:00
5:55 PM,17.6,12.2,79,29.98,10.0,SSW,9.2,-,N/A,,Clear,210,2012-12-30 00:55:00
6:15 PM,17.6,12.2,79,29.98,10.0,SSW,4.6,-,N/A,,Clear,200,2012-12-30 01:15:00
6:35 PM,15.8,10.4,79,29.98,10.0,Calm,Calm,-,N/A,,Clear,0,2012-12-30 01:35:00
6:55 PM,15.8,10.4,79,29.97,10.0,SW,3.5,-,N/A,,Clear,230,2012-12-30 01:55:00
7:35 PM,15.8,10.4,79,29.97,10.0,SSW,5.8,-,N/A,,Clear,210,2012-12-30 02:35:00
7:55 PM,17.6,12.2,79,29.96,10.0,SSW,10.4,-,N/A,,Clear,210,2012-12-30 02:55:00
8:35 PM,15.8,12.2,86,29.96,10.0,SSW,9.2,-,N/A,,Clear,200,2012-12-30 03:35:00
8:55 PM,15.8,10.4,79,29.96,10.0,SSW,11.5,-,N/A,,Clear,210,2012-12-30 03:55:00
9:15 PM,14.0,10.4,86,29.95,10.0,SSW,5.8,-,N/A,,Clear,210,2012-12-30 04:15:00
9:36 PM,15.8,14.0,93,29.95,10.0,Calm,Calm,-,N/A,,Clear,0,2012-12-30 04:36:00
9:55 PM,12.2,12.2,100,29.96,10.0,SSW,8.1,-,N/A,,Clear,210,2012-12-30 04:55:00
10:15 PM,14.0,12.2,93,29.96,10.0,SSW,9.2,-,N/A,,Clear,210,2012-12-30 05:15:00
10:35 PM,12.2,10.4,92,29.96,10.0,SW,6.9,-,N/A,,Clear,220,2012-12-30 05:35:00
10:55 PM,12.2,10.4,92,29.95,10.0,SW,6.9,-,N/A,,Clear,230,2012-12-30 05:55:00
11:15 PM,12.2,6.8,79,29.96,10.0,South,5.8,-,N/A,,Clear,190,2012-12-30 06:15:00
11:55 PM,12.2,12.2,100,29.97,10.0,WSW,5.8,-,N/A,,Clear,240,2012-12-30 06:55:00